FENGYUN 1C DEB, 30927

Orbit data source: Space-Track

FENGYUN 1C DEB, 30927 is space debris in SSO originally from a launch on Mon, 10 May 1999 UTC launched from the Taiyaun Space Center, China (TSC). Fengyun 1C debris stems from the Chinese weather satellite Fengyun-1C, which was intentionally destroyed by a Chinese anti-satellite missile in 2007. This event dramatically increased the amount of space debris, with thousands of trackable fragments posing hazards to satellites and human spaceflight. The Fengyun 1C debris cloud has become a focal point in discussions about space sustainability and the need for international regulations to prevent the creation of new debris.

Loading next visibility...
Identifier
30927, 1999-025AZR
Orbit
SSO
Country
Flag of CNCN / PRC
Related business
Manufacturer
Unknown
Mission
Spacecraft
Bus & Motor
Unknown
Mass
Unknown
Launch date (UTC)
1999-05-10 (27 years ago)
Launch vehicle
Unknown
Launch site
Taiyaun Space Center, China (TSC)
Object type
Payload
Rocket body
Debris
Shape & HBR
Unknown shape, 0.1 m
Radar Cross Section
Small (<0.1 m²)

Expand to show TLE details & history
Last TLE update: 23 hours ago

TLE from 23 hours ago
0 FENGYUN 1C DEB
1 30927U 99025AZR 26144.12416656  .00002036  00000-0  11338-2 0  9993
2 30927  99.1696 212.6620 0095685 271.3299  87.6910 14.09900721979715
Epoch: 2026-05-24T02:58Z
TLE epoch observation values (Epoch: 2026-05-24T02:58:47.990Z)
Latitude
-0.00007°
Longitude
-73.76876°
Altitude
860.469 km
Speed
7.423 km/s
True Right ascension
14h 10m 38s
True Declination
0° 00' 00"
Sunlit
Object was in full shadow at epoch
Visualization orbit readout
Latitude
Unknown
Longitude
Unknown
Altitude
Unknown
Speed
Unknown
Apparent Right ascension
Unknown
Apparent Declination
Unknown
Sunlit
N/A
Visualization observer readout
Local Sidereal Time
11:23:25
Azimuth
Unknown
Elevation
Unknown
Doppler factor
Unknown
Orbital elements
Apogee altitude
926.134 km
Perigee altitude
787.677 km
Semi-major axis
7,235.043 km
Eccentricity
0.00957
Inclination
99.1696°
RAAN
212.662°
Arg. of periapsis
271.3299°
True anomaly
88.78704°
Mean anomaly
87.691°
Eccentric anomaly
88.23898°
Mean motion
3.52681 °/min
Orbital period
102.08 mins
BSTAR
0.0011338
Loading maneuver chart data...
Computing Atmospheric mass density...

Documentation

Showing up to 5 results
|